Regional Weather Roundup
Issued by NWS

Home | Current Version | Previous Version | Text Only | Print | Product List | Glossary On
Versions: 1 2 3 4 5 6 7 8 9 10 11 12 13 14 15 16 17 18 19 20 21 22 23 24 25 26 27 28 29 30 31 32 33 34 35 36 37 38 39 40 41 42 43 44 45 46 47 48 49 50
000
ASUS45 KPSR 250810
RWRAZ

ARIZONA REGIONAL HOURLY WEATHER ROUNDUP
NATIONAL WEATHER SERVICE PHOENIX AZ
100 AM MST FRI JUL 25 2014

NOTE: FAIR INDICATES FEW OR NO CLOUDS BELOW 12,000 FEET WITH NO
SIGNIFICANT WEATHER AND/OR OBSTRUCTIONS TO VISIBILITY.

AZZ001>003-036-250900-
NORTHWEST ARIZONA

CITY           SKY/WX    TMP DP  RH WIND       PRES   REMARKS
BULLHEAD CITY  PTCLDY    95  55  26 SE7       29.76F
KINGMAN        MOCLDY    82  52  35 SE10      29.99S
$$

AZZ004>008-015-016-018-250900-
NORTH CENTRAL ARIZONA

CITY           SKY/WX    TMP DP  RH WIND       PRES   REMARKS
GRAND CANYON   MOCLDY    58  55  90 CALM      30.29S
WILLIAMS       MOCLDY    59  50  72 SE9       30.36S
PRESCOTT       MOCLDY    68  54  60 S6        30.16F
FLAGSTAFF      PTCLDY    53  49  86 CALM      30.34S
PAYSON         CLEAR     73  43  33 NE3       30.19S
PAGE           PTCLDY    84  49  29 SW5       30.05S
$$

AZZ009>014-017-250900-
NORTHEAST ARIZONA

CITY           SKY/WX    TMP DP  RH WIND       PRES   REMARKS
WINSLOW        CLEAR     68  52  56 SE5       30.17S
SAINT JOHNS    PTCLDY    73  48  41 S5        30.23S
WINDOW ROCK    CLEAR     65  47  52 CALM      30.33S
SHOW LOW       PTCLDY    66  39  37 CALM      30.31F
$$

AZZ023-250900-
GREATER PHOENIX AREA

CITY           SKY/WX    TMP DP  RH WIND       PRES   REMARKS
PHOENIX        MOCLDY    97  61  30 W10       29.83R
BUCKEYE          N/A     91  59  33 SW6       29.85S
LUKE AFB       NOT AVBL
DEER VALLEY    CLEAR     94  55  26 W16       29.84R
SCOTTSDALE     CLEAR     94  59  31 S5        29.87R
MESA-GATEWAY   CLEAR     93  59  31 S12       29.89R
$$

AZZ027-028-250900-
SOUTHWEST MARICOPA COUNTY AND PINAL COUNTY

CITY           SKY/WX    TMP DP  RH WIND       PRES   REMARKS
CASA GRANDE    CLEAR     90  61  37 CALM      29.91R
$$

AZZ503-504-507>509-250900-
SOUTHEAST ARIZONA

CITY           SKY/WX    TMP DP  RH WIND       PRES   REMARKS
TUCSON         CLEAR     87  60  40 W3        30.02R
DAVIS-MONTHAN  CLEAR     86  62  44 SW8       30.01S
NOGALES        CLOUDY    75  62  64 E5        30.12S
SIERRA VISTA   CLEAR     79  57  47 S3        30.17S
DOUGLAS        CLOUDY    76  62  62 SE6       30.12S
SAFFORD        CLEAR     82  42  24 SE8       29.99F
$$

AZZ020-021-025-026-031-250900-
SOUTHWEST ARIZONA

CITY           SKY/WX    TMP DP  RH WIND       PRES   REMARKS
YUMA           PTCLDY    94  71  47 SE18G28   29.73S HX 101
$$

CAZ031-033-041-043-047-048-061-250900-
SOUTHERN CALIFORNIA

CITY           SKY/WX    TMP DP  RH WIND       PRES   REMARKS
DOWNTOWN L.A.  CLEAR     71  60  68 CALM      29.84R
L.A. AIRPORT   PTCLDY    73  58  59 S3        29.84R
SAN DIEGO      CLOUDY    71  66  84 S13       29.90R
BURBANK        CLEAR     74  58  57 SE9       29.85R
ONTARIO        PTCLDY    76  55  48 W5        29.86R
RIVERSIDE      CLEAR     79  55  43 CALM      29.86R
PALM SPRINGS   CLEAR     95  50  21 SW3       29.74R
EL CENTRO NAS  CLOUDY    95  67  39 E5        29.68R
IMPERIAL       CLOUDY    95  67  39 SE14      29.68S
BLYTHE         MOCLDY    98  58  26 S16       29.74S
NEEDLES        PTCLDY    99  53  21 SW5       29.77R
$$

NVZ020-UTZ003-250900-
SOUTHERN NEVADA-UTAH

CITY           SKY/WX    TMP DP  RH WIND       PRES   REMARKS
LAS VEGAS      MOCLDY    96  52  22 S15       29.80R
SALT LAKE CITY PTCLDY    69  45  41 N3        29.99S
$$

NMZ009-TXZ055-250900-
NEW MEXICO-WEST TEXAS

CITY           SKY/WX    TMP DP  RH WIND       PRES   REMARKS
ALBUQUERQUE    PTCLDY    77  40  26 S9        30.21F
EL PASO        PTCLDY    80  52  37 CALM      30.11S
$$


........................KEY........................
SKY/WX - SKY CONDITION/WEATHER
TMP    - TEMPERATURE IN FAHRENHEIT
DP     - DEW POINT IN FAHRENHEIT
RH     - RELATIVE HUMIDITY IN PERCENT
WIND   - DIRECTION AND SPEED IN MILES PER HOUR (MPH)
VRB    - VARIABLE WIND DIRECTION
PRES   - MEAN SEA LEVEL PRESSURE IN INCHES OF MERCURY
         F - FALLING PRESSURE   R - RISING PRESSURE
         S - STEADY PRESSURE
VSB    - VISIBILITY IN MILES
HX     - HEAT INDEX IN FAHRENHEIT
WCI    - WIND CHILL INDEX IN FAHRENHEIT
TC     - TEMPERATURE IN CELSIUS WHICH IS ALSO KNOWN AS
         TEMPERATURE IN CENTIGRADE
AFB    - AIR FORCE BASE
         LUKE AFB IS LUKE AIR FORCE BASE
         DAVIS-MONTHAN IS DAVIS-MONTHAN AIR FORCE BASE
NAS    - NAVAL AIR STATION
         EL CENTRO NAS IS EL CENTRO NAVAL AIR STATION
N/A    - NOT AVAILABLE



USA.gov is the U.S. government's official web portal to all federal, state and local government web resources and services.